Theta_e
318 318 318 318 318 318 318 318 319 319 319 319 319 319 319 320 320 320 321 321 322 322 322 323 325 327 327 322 320 349 362 368 358 354 338 329 328 330 326 328 331 329 330 333 335 336 335
318 318 318 318 318 318 318 318 318 318 318 318 319 319 320 319 319 320 320 321 321 321 322 324 326 327 328 314 328 341 346 351 346 343 338 331 330 331 330 329 327 332 331 332 335 334 335
317 318 317 318 318 318 317 317 318 318 318 318 318 319 318 318 318 319 319 318 319 320 322 326 329 329 320 317 326 330 335 344 344 341 336 334 334 330 332 329 333 331 328 331 332 334 333
317 317 318 317 317 317 317 317 317 317 317 318 318 317 317 317 317 318 317 317 318 321 325 329 330 328 317 323 326 327 328 326 330 335 335 335 333 330 332 335 331 327 327 321 328 331 334
317 317 317 317 317 318 317 317 317 317 318 318 317 317 316 316 316 316 316 316 319 324 328 329 329 324 316 319 318 323 325 323 327 328 333 331 329 328 331 326 324 325 312 318 321 329 329
317 317 317 317 317 318 318 318 318 318 317 317 316 316 316 316 315 315 315 316 327 324 327 331 325 317 318 315 321 323 325 324 322 324 324 323 324 323 325 323 308 315 317 317 316 322 325
317 316 317 317 317 318 318 318 318 317 316 316 316 316 315 315 315 314 318 327 323 322 323 318 318 314 315 320 323 321 324 321 322 321 316 322 319 317 320 324 321 321 319 316 319 322 322
317 316 317 317 318 318 318 317 317 317 316 316 316 315 315 315 314 314 317 322 320 321 315 319 317 317 320 321 315 318 323 315 316 314 319 319 316 321 323 323 322 320 318 317 320 322 321
316 317 317 318 318 318 317 317 317 316 316 316 316 315 315 314 313 317 325 322 327 325 317 315 317 316 317 318 314 316 320 317 314 313 315 315 318 321 321 320 318 319 318 317 317 320 322
317 317 317 318 318 317 317 317 317 316 316 315 315 315 314 312 313 327 324 326 327 325 312 310 314 317 319 317 312 319 321 317 314 311 313 315 319 318 318 317 318 315 321 319 317 316 311
318 317 317 317 317 317 317 317 317 316 316 315 315 314 313 310 325 325 325 328 327 324 302 312 313 322 318 314 315 315 321 317 311 311 312 311 313 315 314 316 319 316 321 318 318 316 315
318 317 317 317 317 317 316 316 316 316 315 315 314 312 312 319 326 325 327 327 323 309 300 310 314 312 313 313 313 315 315 318 317 312 312 312 316 314 314 317 318 319 317 318 317 315 308
317 317 317 317 317 316 316 316 316 315 314 313 312 310 314 323 324 328 328 323 310 305 312 308 309 312 311 309 310 312 310 310 308 305 306 310 310 313 314 311 316 314 311 305 305 306 305
317 317 317 317 316 316 316 316 316 315 314 312 309 308 319 327 330 329 325 317 305 307 309 312 311 311 309 312 311 310 310 308 312 310 307 305 304 310 314 311 309 311 310 305 300 302 305
317 317 317 316 316 316 316 316 315 314 313 311 308 328 330 332 331 328 318 309 309 310 312 310 311 309 308 310 311 310 310 311 313 315 306 305 305 313 312 313 313 309 306 312 306 308 304
317 317 317 316 316 316 316 316 315 314 312 310 329 328 328 331 332 326 317 305 311 314 314 313 308 310 307 308 309 310 311 314 313 316 317 311 304 311 312 313 312 310 313 306 306 299 299
317 317 317 316 316 316 316 316 314 313 311 310 327 323 328 332 331 323 314 313 313 316 317 313 309 308 309 309 310 309 311 314 315 315 317 314 310 309 311 309 308 308 307 308 309 307 302
317 317 316 316 316 316 316 316 314 311 309 310 328 320 330 331 319 319 315 315 309 315 316 314 313 312 310 311 310 310 310 314 316 316 312 316 311 306 309 315 313 311 309 309 303 303 306
317 317 316 316 316 316 316 315 313 310 309 322 324 321 331 327 315 314 315 314 315 315 314 314 313 313 314 311 308 311 312 316 317 315 314 316 310 304 307 311 314 309 310 310 309 309 305
317 317 316 316 316 316 316 315 312 310 310 316 323 317 319 325 321 315 313 313 312 316 315 316 315 316 314 313 314 310 311 315 317 316 323 317 310 307 303 307 310 310 311 312 310 304 305
318 317 316 316 316 316 316 315 313 311 310 319 317 312 311 313 315 315 313 313 310 311 315 316 314 313 312 310 311 310 313 314 315 318 316 315 308 310 310 311 311 310 309 310 309 310 306
318 317 316 316 316 316 316 316 313 311 309 320 314 312 316 312 309 310 305 311 309 311 311 312 311 312 311 310 311 309 312 311 310 313 314 316 309 310 308 310 310 308 310 310 311 311 311
319 317 316 315 315 316 316 316 314 311 312 317 317 320 313 305 310 309 312 310 309 309 312 313 312 310 309 310 312 313 312 312 311 309 308 307 305 306 304 309 309 305 309 310 311 313 313
320 318 317 316 315 315 316 316 315 313 310 319 317 317 313 310 310 309 306 306 305 306 306 309 309 307 310 314 312 310 310 309 309 310 310 306 306 307 304 307 298 309 315 314 313 315 317
321 320 318 316 315 314 315 316 316 314 312 318 317 316 314 310 311 309 308 307 309 310 308 308 309 311 313 309 305 306 307 308 309 310 310 311 308 305 303 303 307 309 312 312 312 312 318
321 320 319 317 315 314 314 315 316 315 313 319 316 317 316 312 310 309 308 310 308 309 309 310 311 313 312 307 305 301 301 305 304 306 315 315 315 309 307 302 299 310 316 321 320 309 320
321 321 320 318 316 314 313 314 314 314 313 314 318 317 315 312 317 313 311 309 311 309 307 310 311 310 310 305 303 302 302 308 302 304 306 310 310 307 306 304 307 315 318 320 307 312 327
319 320 320 319 317 315 314 313 314 314 314 313 319 319 313 313 316 317 313 312 313 311 308 312 309 310 307 304 305 305 305 308 307 309 308 306 306 306 308 305 302 321 320 313 320 326 327
319 319 319 319 318 316 315 313 313 313 313 312 318 322 318 312 316 319 318 317 315 313 311 311 309 309 310 306 309 308 305 307 307 302 313 305 310 307 309 309 320 324 322 324 326 326 326
Wind_Speed
16 16 15 16 16 17 17 17 17 18 18 19 20 20 20 20 21 21 20 19 19 19 20 20 19 17 12 11 2 8 10 12 16 15 14 11 14 14 8 3 3 14 8 10 9 8 8
15 16 16 17 17 17 17 18 18 18 18 19 20 20 20 21 21 21 20 19 19 19 20 19 17 15 10 15 6 10 8 13 14 15 15 12 12 10 14 6 20 7 3 8 9 5 7
15 16 16 17 17 18 18 18 19 19 18 19 19 20 20 21 22 21 21 20 20 20 18 16 13 8 11 10 2 7 8 11 14 13 15 12 8 13 9 4 1 7 11 14 9 7 4
16 16 17 17 17 18 19 19 19 19 19 19 20 20 21 22 22 22 22 21 21 19 15 14 8 11 10 6 2 8 9 10 12 12 15 14 11 14 14 3 9 13 10 4 13 6 6
16 17 17 18 18 18 19 19 20 19 19 19 20 20 21 21 21 22 22 22 21 16 10 7 8 10 12 5 11 10 9 12 14 13 12 10 13 17 8 16 17 11 13 4 9 7 3
16 17 17 18 19 18 19 19 20 20 20 21 21 20 20 20 20 19 22 22 5 8 8 9 8 8 10 8 3 4 7 8 10 13 13 14 14 17 15 17 8 21 2 6 3 7 5
17 17 19 19 19 19 19 20 20 21 22 22 21 19 20 19 18 17 17 7 8 9 13 10 2 11 2 3 9 11 10 13 15 14 17 19 17 17 19 13 11 11 7 5 2 4 7
17 19 20 20 20 20 20 20 20 21 22 21 21 19 19 18 18 16 10 6 8 7 9 5 6 8 9 5 7 10 8 13 18 18 19 20 20 20 18 14 9 6 11 10 2 5 8
18 19 19 20 20 21 21 22 21 23 22 20 19 19 17 17 18 9 5 7 7 7 10 8 3 4 1 8 9 11 13 16 15 19 20 22 20 19 22 10 13 15 16 13 8 11 16
18 18 19 20 20 21 22 22 23 23 22 20 20 18 16 18 7 1 2 4 8 4 9 11 10 6 9 6 10 4 8 13 15 17 20 22 17 25 12 15 17 19 15 9 6 13 13
17 17 18 20 21 22 23 24 24 23 23 21 20 17 14 7 11 4 7 7 8 6 7 4 7 5 3 11 6 15 8 11 16 16 12 15 19 22 14 19 18 18 17 7 12 15 17
17 18 19 20 22 23 23 24 24 23 23 22 19 17 12 6 7 5 7 7 7 10 4 6 3 4 11 11 7 7 11 12 5 9 8 18 3 8 16 20 22 21 20 12 16 16 15
18 19 20 21 22 23 24 24 25 24 23 21 18 14 8 7 5 8 7 8 9 5 3 4 2 5 1 8 7 9 15 16 12 12 15 16 14 14 14 14 13 13 18 15 17 16 14
18 19 20 21 22 24 24 25 25 25 24 21 17 10 9 7 7 8 8 11 4 4 9 5 4 6 2 3 6 7 10 15 15 15 15 12 18 23 18 16 18 17 17 15 21 17 16
18 19 20 21 23 24 25 26 26 26 24 21 17 8 8 2 3 6 9 8 7 8 6 6 8 9 8 4 6 7 1 11 10 12 13 15 15 9 4 10 15 19 19 17 21 20 17
18 19 20 21 23 24 25 27 27 27 25 20 7 7 4 4 6 7 10 6 5 3 7 7 6 9 2 5 8 7 3 5 2 3 8 13 10 14 11 13 16 17 17 15 12 20 19
17 18 19 21 23 24 25 27 28 29 27 15 7 6 6 6 6 9 5 5 3 5 7 9 4 1 3 4 10 3 7 8 7 9 7 11 12 11 2 12 14 12 16 18 20 14 13
16 17 19 21 22 24 26 27 27 28 32 3 8 4 3 7 9 4 5 4 3 1 3 1 6 7 9 3 6 4 5 9 7 11 13 10 11 13 14 11 9 12 16 16 14 19 15
15 17 18 20 22 24 26 27 27 25 20 8 6 4 2 8 6 4 4 6 4 1 2 2 1 4 4 6 6 6 1 7 5 11 10 13 9 14 10 17 16 10 16 17 20 19 19
14 16 17 19 21 24 26 28 27 26 15 6 7 4 5 2 4 9 1 1 5 3 2 6 7 6 6 9 5 7 6 2 1 11 7 5 14 17 16 19 5 22 11 12 17 13 15
13 15 17 18 21 23 25 28 30 29 24 5 2 6 6 2 5 6 4 3 5 4 3 4 4 6 8 10 11 9 9 7 6 7 7 14 16 15 18 21 22 19 19 17 17 17 18
11 13 15 16 18 21 24 26 30 34 35 2 7 7 3 5 3 7 6 4 7 2 4 6 5 6 8 11 12 14 15 12 10 10 10 12 13 15 17 18 20 24 25 22 21 21 18
10 11 13 15 17 18 21 23 26 30 26 6 6 1 6 3 5 7 4 5 5 4 7 7 8 8 11 9 12 14 16 18 18 16 15 15 13 14 16 17 15 17 21 22 22 23 24
9 9 11 13 15 16 18 19 21 24 21 8 5 7 6 5 4 6 5 3 7 8 10 10 6 11 9 10 16 19 21 21 20 18 17 17 14 12 14 14 18 17 16 16 17 16 18
9 8 8 10 11 14 16 17 19 20 22 8 6 6 5 8 5 8 4 6 8 8 11 12 10 8 9 12 13 12 13 18 17 19 18 16 13 11 13 15 17 17 15 11 13 16 15
10 9 8 8 9 10 13 15 16 18 21 10 7 7 6 7 6 6 9 8 9 10 9 9 3 7 10 9 10 12 11 10 7 5 4 10 12 11 12 15 17 13 8 8 9 13 9
10 10 9 8 8 8 9 11 14 16 17 9 4 9 6 7 2 6 8 8 6 7 8 8 1 7 7 9 10 11 13 12 8 12 10 9 9 13 12 13 15 10 7 4 11 4 9
10 10 10 9 8 7 7 8 10 12 14 10 3 6 7 6 11 8 6 9 9 6 8 5 8 10 7 10 10 10 8 8 10 10 13 12 12 12 12 16 19 8 7 9 8 6 7
11 10 10 10 9 8 7 7 7 9 12 12 5 3 5 6 10 14 14 15 14 12 11 8 8 6 5 6 4 5 9 9 13 13 13 13 12 13 17 13 2 4 4 6 9 9 8
Wind_Direction
9 3 2 359 357 354 351 347 345 342 339 337 334 331 329 326 324 322 321 321 318 316 313 309 309 318 306 227 245 105 132 159 189 223 251 257 270 278 286 131 146 107 101 95 98 145 130
6 4 0 358 355 352 349 346 343 341 338 336 332 329 326 324 323 322 321 319 315 312 307 302 303 308 249 255 88 137 138 168 209 220 252 244 283 340 300 332 123 91 103 104 151 127 129
4 3 0 356 352 350 347 345 343 339 336 333 330 327 325 323 322 320 317 315 312 308 302 295 291 275 266 269 48 153 185 197 219 231 254 256 296 292 314 162 123 151 171 168 140 149 149
2 1 358 355 352 349 346 343 340 337 333 331 330 327 324 322 320 317 314 311 307 301 293 285 263 251 269 72 293 210 229 224 236 239 260 296 293 284 277 118 207 219 243 163 111 143 135
1 0 357 354 350 345 342 339 337 333 330 330 329 326 323 320 318 316 310 306 298 287 272 259 232 235 253 135 213 212 229 238 206 222 242 273 263 267 239 238 221 219 209 43 107 142 172
1 358 356 352 347 343 340 336 334 332 331 330 328 325 321 319 317 313 308 292 305 278 223 230 268 249 227 219 101 255 238 240 259 222 218 232 238 246 245 253 108 261 17 84 32 105 191
2 356 353 349 344 341 338 335 332 331 332 329 327 322 320 316 312 311 315 222 206 194 220 283 69 260 149 303 241 217 207 209 232 244 224 212 236 241 252 253 151 268 356 311 84 61 286
359 355 351 346 342 341 337 334 331 332 331 328 325 321 318 312 308 307 279 281 34 347 286 196 253 265 276 292 258 216 192 223 212 230 222 241 222 250 251 273 296 257 268 267 191 153 277
356 352 347 343 340 338 335 333 332 334 333 329 324 322 315 311 313 277 297 39 335 310 254 139 140 236 176 221 250 194 195 214 222 227 238 233 240 226 254 264 254 256 265 279 318 319 269
353 349 345 342 340 338 335 333 333 333 335 330 326 319 315 314 288 48 193 354 321 304 259 135 180 121 191 238 232 266 240 248 237 243 234 248 243 262 264 255 266 263 264 338 304 269 285
352 349 345 342 340 338 336 334 334 334 332 328 325 318 310 288 320 244 16 316 321 243 222 102 113 78 180 228 85 185 215 236 260 221 264 235 238 251 242 261 254 265 289 320 297 282 279
351 349 346 342 341 340 337 334 333 333 332 329 326 320 313 206 230 354 308 305 248 234 101 120 170 190 189 202 197 122 201 232 303 274 229 261 355 282 267 257 251 266 271 266 257 258 259
351 347 346 344 342 339 336 335 335 334 334 331 326 318 278 299 2 336 303 249 238 294 158 100 76 207 337 164 162 208 196 201 216 217 231 221 225 223 253 266 252 247 249 249 242 234 244
351 347 346 343 342 339 338 337 335 335 335 332 325 310 204 285 290 304 261 250 292 336 45 147 231 208 324 317 157 201 187 213 220 288 291 252 217 211 210 237 263 226 244 254 254 258 261
350 348 346 345 343 340 340 338 338 337 336 332 315 209 240 117 289 277 267 266 38 25 340 330 215 231 147 155 291 196 345 32 37 322 282 279 251 237 266 275 234 250 258 265 275 274 272
349 347 348 345 343 342 341 340 339 338 335 334 283 259 77 301 257 259 253 25 98 351 293 248 308 304 353 86 249 246 136 28 353 356 306 287 298 293 262 215 250 268 281 262 227 261 272
348 346 348 346 344 344 342 343 342 339 333 332 248 241 74 295 251 245 283 61 101 92 318 322 337 203 347 349 314 294 72 83 5 346 304 305 285 273 185 253 255 205 236 251 275 282 267
347 346 347 346 346 346 344 345 345 343 335 262 281 264 68 287 258 311 91 0 312 80 184 293 286 338 323 339 324 319 357 42 6 322 317 350 309 297 288 285 233 291 282 230 235 246 254
345 347 348 347 347 347 346 346 346 348 355 315 290 7 149 286 283 126 135 134 319 303 320 263 311 293 346 313 289 243 181 99 317 319 3 345 290 298 266 239 202 227 250 263 277 281 273
345 348 349 348 348 349 348 347 347 344 354 293 284 240 140 248 331 311 244 148 179 172 289 312 327 278 277 262 200 283 262 189 234 294 96 284 267 275 289 315 201 300 301 286 279 277 277
344 347 350 349 350 351 351 349 347 344 341 280 335 46 6 351 98 341 297 12 272 239 200 260 249 276 330 303 293 281 280 304 300 150 247 246 275 288 292 296 299 290 288 284 278 281 284
337 344 348 350 352 353 353 353 351 347 335 301 337 332 326 310 215 264 141 197 299 308 276 274 262 333 312 299 308 310 309 292 294 283 262 275 285 282 268 272 273 281 280 278 273 275 275
328 339 344 349 353 355 355 356 356 357 342 23 6 287 283 137 281 267 21 16 341 340 257 295 321 304 288 334 328 304 295 289 283 278 277 280 283 280 275 288 290 274 256 257 269 274 274
314 326 338 345 350 353 355 357 360 358 4 336 21 289 286 287 270 351 342 298 292 297 291 306 292 288 303 329 297 271 257 253 255 258 260 260 257 273 277 275 268 273 299 283 295 293 304
293 306 323 334 344 350 353 357 359 357 355 328 9 338 330 293 356 264 289 298 291 262 246 258 283 313 321 292 286 285 275 229 234 235 234 243 251 262 267 259 271 273 269 286 273 270 287
293 291 299 313 330 343 350 355 358 356 351 314 40 336 305 305 79 353 302 300 293 300 281 232 167 264 297 268 271 264 268 336 304 238 204 272 234 247 256 273 279 308 6 29 328 278 295
287 286 286 296 308 323 339 349 356 357 350 321 24 358 287 298 359 329 300 331 334 286 276 283 298 285 220 264 261 270 277 291 255 271 254 224 234 253 244 255 268 283 313 29 265 354 5
285 282 277 275 279 296 314 331 346 353 350 339 16 14 336 311 300 290 275 281 285 242 276 358 283 192 268 251 265 278 270 275 284 269 282 277 264 247 245 254 261 16 317 250 348 337 6
280 284 277 266 266 271 284 304 329 343 343 337 306 21 331 266 303 322 284 281 274 277 287 274 300 300 319 291 287 288 280 268 265 268 266 253 254 275 284 286 336 316 285 295 322 317 312